Theta_e
322 318 317 331 336 337 337 337 337 339 339 342 340 342 340 340 340 339 339 337 336 335 334 334 332 330 331 328 327 325 325 325 326 325 325 325 325 326 326 327 326 325 323
321 319 317 318 335 336 337 335 336 336 336 337 338 338 339 340 340 339 338 337 337 336 336 335 335 334 332 330 327 326 324 324 325 326 322 327 324 324 324 325 325 325 324
319 319 314 314 319 331 336 337 335 332 330 335 334 337 337 337 338 339 338 336 336 337 337 336 335 335 334 331 329 327 325 324 324 324 326 323 327 320 322 322 322 322 322
312 311 312 312 321 326 325 335 334 335 337 338 337 337 336 335 336 337 338 335 334 335 334 335 333 332 334 332 330 327 325 324 324 323 324 325 322 321 323 321 320 319 318
311 311 310 311 312 314 317 322 335 337 336 338 337 336 335 336 336 336 335 334 333 331 330 330 330 331 332 331 329 329 327 326 324 324 323 322 322 320 319 323 324 321 320
312 311 312 311 311 311 312 315 330 336 337 337 337 337 336 335 335 335 336 336 336 335 334 331 330 330 330 330 330 329 328 327 327 325 324 323 322 318 316 317 319 321 320
312 312 310 310 310 311 311 314 326 333 335 336 336 336 336 336 335 335 335 335 334 334 335 334 334 334 334 334 333 331 330 329 327 326 325 324 323 323 321 319 319 316 316
308 309 308 309 310 310 311 313 319 325 327 331 334 334 334 334 333 333 332 332 330 329 329 328 330 332 332 332 332 332 332 332 329 327 325 325 324 323 322 321 319 311 310
305 306 307 308 309 309 309 311 313 315 317 320 324 326 327 327 328 325 319 317 316 316 316 317 319 321 325 330 331 332 331 331 329 328 326 325 324 323 322 321 319 317 312
306 306 307 306 307 307 307 308 309 309 309 310 310 311 311 311 311 311 311 311 312 312 312 313 315 316 318 323 328 329 330 329 327 326 324 322 319 317 316 316 316 315 314
307 306 305 304 305 306 307 307 308 308 308 308 308 309 309 309 310 310 310 311 312 312 313 314 315 317 318 320 323 326 327 325 325 320 317 316 314 315 314 312 312 311 309
305 304 303 302 303 305 306 306 306 307 307 308 308 308 308 308 309 309 310 311 311 312 313 314 315 315 317 318 320 321 320 319 316 316 314 312 310 310 309 308 307 307 306
304 302 302 302 302 303 304 305 305 305 306 306 306 306 306 306 307 307 308 309 309 310 310 310 311 312 313 314 315 316 315 314 312 310 308 307 306 306 304 303 303 301 301
305 303 302 301 300 302 303 303 303 303 304 304 304 304 304 304 304 304 305 305 306 306 307 307 307 308 308 309 309 309 309 307 306 305 304 303 303 302 301 300 299 297 297
305 304 303 301 299 300 302 302 302 302 302 303 303 302 302 302 302 302 302 302 302 303 303 303 304 304 305 305 306 305 305 304 302 300 300 299 298 298 297 297 295 295 295
307 304 303 301 299 300 301 302 301 301 301 302 302 301 301 300 300 300 300 300 300 300 300 300 301 300 301 301 302 302 301 299 298 296 295 295 294 294 294 293 292 291 290
308 306 304 302 301 301 302 301 300 300 300 300 300 299 299 299 299 299 299 298 298 298 298 298 298 298 297 296 299 299 298 297 296 295 294 293 293 292 291 291 290 289 287
308 307 305 303 304 303 301 301 300 299 299 299 299 298 298 298 298 298 298 297 297 297 296 296 296 296 294 294 296 296 295 294 293 293 293 291 288 287 286 286 286 286 286
303 304 306 306 305 304 302 300 299 298 298 299 298 298 298 298 297 296 297 296 295 295 295 294 294 294 292 293 294 294 293 292 289 287 286 287 287 286 285 284 284 284 285
301 302 303 303 304 303 301 300 298 297 297 298 298 298 298 297 297 296 296 295 295 294 294 294 294 293 292 293 293 293 290 286 285 286 287 287 286 286 284 283 282 282 281
300 301 301 301 301 301 300 298 298 297 299 298 298 297 297 296 296 295 295 294 294 294 293 293 292 292 291 289 287 286 286 286 285 285 286 286 285 284 284 283 282 282 282
300 301 300 299 298 299 299 298 298 299 298 297 297 297 296 296 295 295 294 293 293 293 291 291 289 288 287 287 286 285 285 285 285 285 284 284 284 283 283 282 281 284 284
299 299 300 299 298 298 299 299 299 298 297 296 296 296 296 295 295 293 293 292 292 291 290 288 287 287 288 288 288 286 285 284 284 283 283 283 283 283 282 281 282 283 283
299 298 298 298 298 298 299 299 299 297 297 296 295 295 294 294 294 293 292 292 291 290 289 288 287 288 288 288 288 287 286 284 283 283 284 283 282 282 281 281 281 281 281
302 301 299 299 299 299 299 298 298 297 296 295 294 294 294 293 293 292 292 292 292 292 290 289 288 287 287 286 287 286 286 285 284 283 282 282 280 280 280 280 280 280 280
299 299 298 298 298 298 297 297 297 296 295 294 294 294 293 293 292 292 291 291 292 292 291 290 288 287 286 286 286 286 285 284 284 283 282 281 281 280 280 280 279 279 280
Wind_Speed
18 11 12 10 16 19 23 25 24 27 23 23 26 24 26 25 24 23 22 23 23 22 22 21 20 19 19 18 16 15 15 14 13 9 9 15 17 19 19 18 18 18 18
18 18 15 11 11 14 18 16 19 18 17 21 25 20 26 27 27 23 22 23 23 23 23 22 22 22 21 21 20 18 17 16 14 5 1 3 3 8 13 15 18 17 17
15 16 9 12 6 11 16 19 18 19 21 24 24 23 18 19 21 26 26 25 24 24 23 23 24 24 24 24 23 22 21 15 14 18 7 2 4 2 4 7 8 10 14
5 4 10 14 16 19 15 15 20 24 26 26 27 29 21 16 24 25 28 23 24 25 24 24 24 23 25 26 25 23 24 22 15 15 21 22 9 3 3 8 12 14 13
8 9 13 18 16 19 18 24 22 23 22 24 25 25 26 22 17 19 18 18 19 22 23 23 24 23 25 25 25 25 25 26 22 22 14 19 24 22 10 6 10 12 14
10 10 15 14 11 12 17 19 22 22 22 24 25 27 24 24 20 19 15 14 16 20 22 22 23 23 24 26 26 26 26 26 26 26 25 21 10 8 11 8 13 11 13
13 12 9 10 13 12 14 16 19 21 20 21 23 25 25 24 22 20 15 13 13 14 16 18 20 22 23 23 23 23 26 26 25 25 25 24 23 22 16 13 8 8 11
10 10 8 13 14 12 11 12 15 17 16 17 19 19 19 18 16 14 13 14 13 12 12 12 15 17 19 19 20 21 21 20 20 20 19 18 17 17 17 14 8 2 8
6 7 6 12 12 11 11 11 13 14 13 13 13 13 13 13 14 12 9 8 9 10 11 12 13 13 16 18 20 21 21 21 20 18 17 16 15 13 12 13 14 9 3
2 4 6 10 12 11 10 11 11 12 12 11 11 11 9 9 8 7 8 8 9 10 11 12 13 13 15 16 17 20 21 21 20 19 17 16 13 10 9 9 9 9 8
3 3 7 11 13 13 13 12 10 10 9 8 8 7 6 5 5 5 5 6 6 7 8 9 9 9 8 9 12 17 18 23 19 16 14 12 11 9 7 7 6 6 7
6 7 9 12 13 14 13 12 11 9 7 6 5 4 3 3 1 2 3 4 4 5 5 5 6 7 7 9 11 13 14 13 14 12 12 11 10 8 7 7 5 6 5
8 8 9 11 12 13 13 13 11 11 10 9 7 6 4 2 2 1 1 3 4 4 4 3 4 5 7 8 10 11 11 11 11 12 11 11 9 9 8 7 6 5 5
7 6 5 7 10 12 13 12 11 10 10 10 9 8 6 4 3 2 2 3 3 3 3 3 2 2 4 6 8 10 11 13 12 11 11 9 9 9 9 8 6 6 6
6 6 7 6 8 10 11 10 10 9 8 8 8 6 6 5 5 5 5 5 5 5 6 5 5 6 6 7 9 11 12 13 13 12 12 11 10 9 9 8 8 7 8
6 6 5 8 12 15 16 15 13 11 9 8 8 7 6 5 5 5 5 5 5 6 6 6 7 7 7 9 11 12 15 16 17 18 17 15 14 12 11 10 9 7 7
7 8 9 12 17 20 19 18 15 13 11 9 8 8 7 7 6 6 6 6 6 6 6 7 8 9 10 9 12 14 17 18 17 16 16 16 14 13 13 12 11 9 6
6 6 9 15 20 20 19 16 15 14 12 12 11 9 9 8 7 7 7 6 7 7 8 10 10 11 11 11 12 16 18 18 16 15 14 13 12 10 8 8 6 5 4
3 7 13 19 21 23 22 20 18 15 14 13 13 12 10 9 8 9 10 9 10 10 11 12 13 12 12 12 13 17 19 19 17 15 13 12 11 9 7 5 5 4 4
1 4 5 8 15 22 24 22 20 18 17 15 14 12 11 11 11 11 11 11 12 13 14 14 12 12 14 12 14 16 19 19 17 14 12 9 9 6 5 3 3 3 3
3 3 1 3 8 16 23 22 19 19 15 13 13 13 12 11 11 12 12 14 14 15 15 14 13 13 14 13 13 13 14 15 16 14 12 9 6 4 2 1 1 1 4
3 3 1 2 5 14 19 18 18 14 13 12 13 13 12 13 13 13 13 14 16 18 17 16 15 13 13 12 11 10 9 11 11 10 9 8 5 3 3 2 1 3 4
3 2 3 5 7 10 13 13 12 12 13 14 14 14 14 13 13 14 16 17 18 19 19 17 16 15 14 12 9 9 9 9 8 8 7 6 5 5 5 3 3 6 5
2 2 4 4 6 8 9 10 10 13 14 15 15 15 15 15 14 15 17 20 22 21 20 20 17 17 15 15 14 12 11 9 9 9 8 6 6 6 5 5 6 6 6
3 3 6 7 8 9 10 11 12 14 16 16 15 16 16 15 16 17 19 22 22 24 24 23 22 22 19 19 15 15 14 11 9 9 8 8 7 8 7 7 6 6 6
3 5 7 8 10 11 13 13 13 15 17 17 16 17 17 18 18 19 17 17 19 20 20 18 19 18 14 13 16 15 13 12 11 11 10 9 8 8 8 8 7 7 7
Wind_Direction
255 246 268 238 209 214 214 207 210 208 206 191 194 206 213 219 225 223 225 227 228 230 230 232 231 231 233 235 235 236 237 239 242 255 275 277 273 268 267 264 263 265 266
240 250 261 245 207 213 216 219 219 224 223 231 221 211 216 224 227 224 228 230 228 231 233 236 237 236 237 236 234 234 235 239 235 213 231 297 298 259 259 260 261 266 265
220 234 273 259 207 230 221 212 208 205 234 227 228 232 229 228 228 227 226 229 230 231 235 238 240 242 240 241 239 237 236 237 237 231 212 179 240 320 255 244 240 250 258
199 156 222 253 241 253 263 231 220 220 216 219 218 219 222 216 232 234 227 228 237 237 240 240 242 242 242 243 245 244 243 241 234 232 231 233 233 202 296 258 256 256 257
206 215 206 216 214 222 225 240 229 223 226 228 225 225 224 230 241 238 239 242 237 243 242 243 245 244 244 247 249 248 241 243 238 239 231 234 242 246 238 266 250 266 260
230 228 233 226 222 210 221 226 227 220 218 221 225 226 227 233 236 241 233 238 243 241 242 242 244 246 249 248 251 252 250 244 246 246 245 235 222 216 218 234 255 254 270
214 227 215 203 211 211 212 212 213 215 214 214 219 223 224 232 239 242 244 242 245 248 248 245 245 250 254 254 254 252 250 249 246 247 247 251 252 253 248 240 245 236 243
221 209 207 204 206 205 205 201 204 206 207 210 209 214 221 225 226 231 234 239 241 239 239 240 243 248 251 253 251 249 247 245 243 242 242 244 247 245 244 234 200 227 234
215 216 185 194 184 187 183 182 179 180 185 188 191 191 196 201 206 208 213 224 235 240 243 246 249 251 252 251 252 250 244 236 233 229 227 223 227 237 242 243 240 207 186
232 203 163 158 156 158 159 160 158 153 154 160 162 165 170 174 192 201 215 230 243 253 256 257 257 255 254 250 247 245 238 226 215 209 210 209 216 226 239 234 233 225 217
204 177 135 143 140 139 142 141 145 145 147 148 150 156 162 181 202 214 227 238 242 245 250 251 253 254 254 255 245 235 219 203 194 200 205 210 206 210 208 218 217 214 204
144 135 122 124 128 133 136 140 142 145 147 148 150 142 149 168 197 228 235 241 238 236 237 233 219 231 229 230 223 211 198 199 192 197 202 198 189 179 182 185 179 173 181
117 123 130 138 142 143 144 146 147 146 145 145 142 135 127 111 106 119 196 211 220 214 216 224 216 223 216 208 202 196 190 189 186 179 175 176 169 160 159 157 167 163 163
141 136 137 147 152 154 154 152 148 151 151 152 150 147 148 151 164 192 204 204 203 200 181 180 187 208 210 190 190 185 178 168 163 159 159 161 162 161 151 149 146 135 125
168 171 166 170 170 164 163 164 164 165 166 167 157 158 156 162 171 191 202 208 216 208 202 182 188 202 206 200 180 167 163 158 150 145 142 140 138 137 137 138 132 129 126
191 190 185 182 188 189 184 180 181 181 185 188 173 172 175 179 183 187 190 198 206 200 188 182 178 182 189 192 185 177 163 154 148 141 134 128 119 114 115 117 116 119 125
193 193 201 202 205 206 198 192 188 185 188 194 190 185 191 190 191 185 183 189 183 180 166 159 159 149 141 145 162 161 153 146 143 142 138 130 128 127 126 108 110 97 102
208 216 215 216 218 215 209 200 194 194 190 192 195 195 198 197 194 186 184 182 175 172 158 150 151 148 136 139 155 156 148 142 140 138 135 135 134 140 136 140 135 122 107
215 241 241 233 223 210 205 196 192 196 199 201 203 201 200 198 200 193 178 177 172 165 158 157 151 144 135 142 154 154 142 137 134 132 132 132 128 133 135 141 145 138 142
297 275 261 227 217 209 200 192 193 196 202 206 207 204 204 204 198 199 181 175 175 165 161 154 150 147 140 144 147 151 145 139 136 135 134 133 124 123 126 143 142 151 178
6 348 321 235 218 202 194 191 196 207 213 210 206 202 203 203 200 194 186 177 173 166 161 157 154 153 152 152 154 153 151 148 147 151 147 143 137 134 140 128 141 158 159
55 33 40 126 177 187 189 190 205 215 213 208 204 201 202 198 197 197 189 186 179 172 167 161 157 161 159 158 161 160 165 161 160 160 165 170 175 183 189 216 149 168 197
137 122 140 141 156 181 195 203 218 212 207 205 205 205 203 204 202 201 196 190 188 184 179 176 173 173 171 168 169 173 174 171 169 172 170 172 179 197 205 230 189 201 229
165 155 166 176 180 194 208 225 231 214 209 206 205 205 205 204 206 207 209 202 195 193 190 190 185 183 180 180 176 172 172 175 173 171 180 197 210 219 216 206 213 227 231
241 224 226 223 227 219 222 223 223 216 210 212 210 209 213 209 212 216 213 213 214 207 201 203 198 190 194 198 194 191 190 193 192 193 204 211 213 215 223 226 228 229 229
259 242 244 239 237 227 228 228 226 220 216 212 212 215 216 210 216 214 212 221 224 221 222 221 214 211 218 210 207 207 210 212 205 207 215 217 218 223 226 229 234 239 238